EDT,Max TemperatureF,Mean TemperatureF,Min TemperatureF,Max Dew PointF,MeanDew PointF,Min DewpointF,Max Humidity, Mean Humidity, Min Humidity, Max Sea Level PressureIn, Mean Sea Level PressureIn, Min Sea Level PressureIn, Max VisibilityMiles, Mean VisibilityMiles, Min VisibilityMiles, Max Wind SpeedMPH, Mean Wind SpeedMPH, Max Gust SpeedMPH,PrecipitationIn, CloudCover, Events, WindDirDegrees
2012-10-1,65,61,57,58,54,44,93,73,52,29.84,29.69,29.60,10,6,1,17,8,23,1.12,8,Rain,43
2012-10-2,69,65,60,63,58,55,97,85,73,29.91,29.73,29.60,10,9,6,13,7,16,T,8,,204
2012-10-3,76,66,55,54,52,48,86,64,41,30.14,30.04,29.91,10,10,6,18,7,24,0.00,5,,183
2012-10-4,79,68,56,58,55,52,86,64,42,30.23,30.18,30.14,10,10,7,16,6,21,0.00,0,,177
2012-10-5,77,61,45,61,56,43,100,80,60,30.15,30.07,29.96,10,9,6,25,8,33,0.07,5,Rain,282
2012-10-6,59,50,40,43,37,29,96,64,31,30.21,30.13,30.08,10,10,5,16,8,25,0.10,6,Rain,325
2012-10-7,58,49,40,38,35,33,71,57,43,30.20,30.17,30.12,10,10,10,15,6,22,0.00,6,,330
2012-10-8,59,50,41,39,36,31,82,58,33,30.26,30.19,30.13,10,10,9,9,2,15,0.00,4,,39
2012-10-9,65,52,39,44,40,38,100,70,40,30.18,30.09,29.99,10,9,6,14,6,17,0.00,1,,156
2012-10-10,60,50,40,46,38,30,86,61,36,30.27,30.11,29.97,10,10,10,23,9,26,0.00,3,,274
2012-10-11,64,50,35,39,35,32,92,63,34,30.32,30.25,30.18,10,10,9,14,4,30,0.00,1,,213
2012-10-12,68,58,47,47,43,39,86,64,42,30.34,30.28,30.20,10,10,8,16,4,22,0.01,4,,63
2012-10-13,75,60,44,64,53,40,92,76,59,30.30,30.17,30.03,10,9,7,17,8,23,0.00,6,,162
2012-10-14,77,68,59,61,58,55,97,74,50,30.02,29.87,29.74,10,10,9,31,16,44,0.01,7,Rain,198
2012-10-15,66,57,47,54,43,37,93,65,37,29.98,29.93,29.86,10,10,9,20,9,25,0.00,2,,283
2012-10-16,70,56,42,45,43,39,96,67,37,30.01,29.93,29.80,10,10,7,15,6,18,0.00,2,,153
2012-10-17,77,65,52,52,48,44,96,66,36,29.81,29.71,29.50,10,10,10,29,13,37,0.00,4,,165
2012-10-18,69,61,53,56,43,32,89,61,32,29.71,29.64,29.49,10,9,4,35,11,44,0.30,5,Rain-Thunderstorm,211
2012-10-19,58,54,49,46,40,33,86,65,43,29.78,29.67,29.60,10,10,7,20,10,25,0.03,7,Rain,215
2012-10-20,56,52,47,46,45,43,93,80,66,30.00,29.89,29.78,10,10,10,15,6,18,0.00,7,,250
2012-10-21,74,58,42,48,46,41,96,67,38,30.12,30.06,30.01,10,9,7,13,5,15,0.00,1,,147
2012-10-22,80,69,57,55,52,48,72,56,39,30.14,30.08,30.03,10,10,10,20,8,23,0.00,6,,163
2012-10-23,81,71,60,52,49,46,69,51,32,30.10,30.04,29.99,10,10,10,17,8,23,0.00,5,,178
2012-10-24,81,71,61,57,52,49,69,54,39,30.12,30.06,30.01,10,10,10,16,6,20,0.00,2,,169
2012-10-25,81,69,56,57,53,48,83,61,39,30.06,29.99,29.93,10,10,10,21,8,26,0.00,1,,161
2012-10-26,70,58,45,56,47,43,100,81,61,30.17,30.12,29.96,10,6,2,21,12,25,0.75,8,Rain,348
2012-10-27,56,50,43,43,40,36,89,70,50,30.15,30.11,30.07,10,10,7,21,12,26,T,7,Rain,359
2012-10-28,52,47,42,35,33,30,70,58,46,30.09,30.07,30.04,10,10,10,21,14,26,0.00,6,,351
2012-10-29,57,48,39,32,25,16,67,43,19,30.09,30.01,29.86,10,10,10,30,18,43,0.00,5,,340
2012-10-30,46,44,41,36,33,30,76,65,53,29.83,29.73,29.68,10,10,9,24,16,32,T,8,Rain,300
2012-10-31,54,46,38,33,30,27,64,55,46,29.89,29.82,29.75,10,10,10,21,13,25,0.00,6,,280